Temp
48 47 46 46 45 44 44 44 45 46 46 46 47 46 45 43 43 43 42 41 40 43
49 48 46 46 46 45 45 49 47 47 46 46 46 45 46 44 43 44 43 42 45 46
50 48 47 46 45 45 45 46 46 46 45 45 45 45 45 42 42 41 41 46 45 46
48 47 46 45 44 44 44 44 45 46 45 45 44 44 43 43 45 41 40 43 45 45
48 46 44 43 44 43 43 44 44 45 45 45 44 43 43 42 46 41 39 41 43 44
46 44 43 42 42 42 42 43 43 44 44 44 43 42 42 44 42 41 40 40 43 44
44 43 43 42 43 42 42 42 42 43 43 43 43 43 43 43 40 40 40 40 43 44
45 44 43 43 42 42 42 42 42 42 43 41 43 47 43 41 39 38 38 39 44 44
47 45 43 42 42 41 41 41 41 41 41 39 44 47 48 46 38 38 37 37 42 44
48 47 44 44 43 42 40 39 39 39 39 38 37 46 46 47 39 36 36 37 39 43
48 47 44 43 43 41 40 39 38 39 38 37 39 46 45 46 37 35 36 37 38 40
48 46 45 43 41 40 39 38 38 39 38 37 37 44 44 43 35 37 36 38 38 39
47 46 44 43 41 40 39 40 41 40 39 41 38 42 43 43 35 32 34 36 38 42
47 45 44 43 40 40 40 39 39 38 38 37 37 37 43 43 36 33 33 35 36 38
MSLP
1025.12 1025.18 1025.34 1025.41 1025.41 1025.41 1025.32 1025.21 1025.05 1024.85 1024.73 1024.48 1024.27 1024.12 1023.87 1023.71 1023.70 1023.59 1023.46 1023.22 1022.91 1022.59
1025.36 1025.51 1025.68 1025.70 1025.47 1025.44 1025.35 1025.10 1025.11 1024.89 1024.86 1024.68 1024.41 1024.19 1023.82 1023.84 1023.89 1023.77 1023.58 1023.24 1022.72 1022.31
1025.73 1025.72 1025.78 1025.82 1025.93 1025.78 1025.69 1025.46 1025.24 1024.99 1024.93 1024.79 1024.56 1024.19 1023.86 1024.05 1024.07 1023.95 1023.64 1023.07 1022.67 1022.28
1025.96 1025.96 1025.91 1026.10 1026.15 1025.95 1025.89 1025.70 1025.44 1025.18 1025.05 1024.95 1024.81 1024.41 1024.23 1024.12 1023.98 1023.88 1023.53 1023.00 1022.38 1021.89
1026.02 1026.28 1026.25 1026.31 1026.30 1026.21 1026.09 1025.79 1025.54 1025.26 1025.05 1024.92 1024.78 1024.55 1024.43 1024.12 1023.78 1023.59 1023.21 1022.71 1022.08 1021.35
1026.07 1026.36 1026.49 1026.52 1026.48 1026.30 1026.00 1025.89 1025.56 1025.33 1025.19 1024.85 1024.62 1024.39 1024.10 1023.79 1023.53 1023.20 1022.82 1022.40 1021.73 1020.91
1026.04 1026.35 1026.53 1026.60 1026.52 1026.33 1026.08 1025.97 1025.73 1025.40 1025.11 1024.83 1024.53 1024.09 1023.84 1023.53 1023.19 1022.89 1022.46 1022.02 1021.39 1020.65
1026.04 1026.34 1026.62 1026.58 1026.48 1026.24 1026.14 1025.90 1025.60 1025.36 1025.04 1024.78 1024.38 1023.79 1023.39 1023.18 1022.96 1022.67 1022.26 1021.73 1020.98 1020.22
1026.11 1026.49 1026.57 1026.54 1026.45 1026.20 1026.04 1025.79 1025.50 1025.23 1024.96 1024.62 1024.17 1023.56 1023.23 1022.90 1022.69 1022.41 1021.99 1021.24 1020.27 1019.48
1026.09 1026.28 1026.44 1026.31 1026.18 1025.96 1025.77 1025.61 1025.38 1025.15 1024.76 1024.40 1024.08 1023.37 1022.94 1022.43 1022.23 1021.92 1021.33 1020.66 1019.77 1018.70
1025.95 1026.01 1026.13 1026.08 1025.84 1025.68 1025.52 1025.36 1025.13 1024.84 1024.58 1024.17 1023.53 1022.91 1022.54 1022.08 1021.74 1021.45 1020.89 1020.23 1019.41 1018.47
1025.70 1025.71 1025.66 1025.58 1025.45 1025.21 1025.13 1024.91 1024.60 1024.30 1024.06 1023.74 1023.13 1022.61 1022.17 1021.80 1021.55 1021.10 1020.49 1019.66 1018.78 1017.94
1025.28 1025.26 1025.23 1024.98 1024.89 1024.69 1024.47 1024.26 1023.97 1023.78 1023.55 1023.23 1022.95 1022.34 1021.74 1021.44 1021.28 1020.99 1020.21 1019.21 1018.17 1017.35
1024.87 1024.83 1024.63 1024.51 1024.37 1024.21 1023.99 1023.87 1023.74 1023.71 1023.14 1022.96 1022.64 1022.12 1021.41 1020.98 1020.78 1020.46 1019.93 1019.08 1018.01 1016.93
Wind_Speed
6 4 4 5 3 3 3 2 3 4 4 5 5 5 4 2 3 6 4 6 5 5
6 6 5 5 4 3 4 4 3 3 4 5 6 6 6 4 7 9 7 7 8 9
5 6 6 5 5 6 5 6 5 2 4 5 6 5 5 4 5 7 6 7 10 10
5 6 6 6 5 5 5 6 6 4 4 4 6 6 5 4 5 6 8 9 10 11
6 5 6 6 6 5 6 5 6 5 3 4 4 5 5 6 7 7 8 10 11 12
6 6 6 5 5 5 6 6 7 6 4 4 4 4 4 5 6 9 8 9 11 14
6 5 5 4 4 5 5 5 6 6 4 5 5 5 5 7 7 9 10 10 11 12
5 5 5 3 1 3 5 5 5 5 5 5 4 5 8 6 6 8 10 10 11 12
5 5 5 3 2 1 3 5 5 5 5 5 4 11 16 14 6 8 9 10 12 12
3 3 5 5 3 2 3 3 5 5 5 6 6 11 13 18 6 8 9 11 12 12
1 1 2 5 5 4 3 5 4 6 6 6 6 12 13 16 7 7 10 11 12 13
4 3 3 5 6 6 4 5 5 5 7 5 8 13 14 12 6 9 11 11 12 13
5 5 5 6 6 5 4 6 5 6 6 9 7 12 14 11 4 7 8 11 12 18
5 6 7 6 3 5 6 6 6 6 7 7 6 9 14 15 5 5 7 8 10 10
Wind_Direction
70 70 60 61 55 32 24 14 29 32 31 16 18 3 22 359 360 359 350 335 318 322
65 66 71 51 47 47 14 352 42 17 25 7 17 3 356 12 12 357 345 323 333 332
94 97 83 60 36 37 13 4 8 336 21 12 359 338 4 31 352 345 329 329 330 331
91 94 76 59 50 38 18 359 6 357 34 16 353 332 9 340 353 325 321 321 327 319
108 98 72 64 42 28 18 355 360 2 25 24 354 351 15 328 338 313 313 315 312 321
118 100 82 73 41 27 19 357 350 358 346 350 335 332 308 328 336 321 313 312 308 323
135 122 103 88 42 26 13 2 347 346 318 333 327 321 335 338 327 324 321 310 306 309
136 124 125 112 49 6 15 344 338 342 328 339 329 343 345 335 321 317 314 303 307 312
86 154 160 189 217 332 347 335 339 340 327 337 323 329 339 339 324 309 305 304 316 312
74 90 185 216 237 299 292 299 309 308 320 323 297 300 326 335 323 309 307 305 309 313
154 275 189 234 264 266 254 267 282 279 286 298 294 312 320 327 312 306 301 302 299 303
231 254 277 267 261 262 250 262 260 252 286 298 298 310 313 319 310 309 306 305 305 308
246 246 270 269 267 253 236 253 270 274 268 276 280 302 303 309 293 296 302 306 310 312
256 255 256 274 251 272 278 272 268 265 276 274 271 287 296 301 300 283 298 305 311 313